Year,Month,Day,Hour,Minute,Value (Times are PST for temperature in C)
2016,04,16,00,00,5.90
2016,04,16,00,01,5.90
2016,04,16,00,02,5.90
2016,04,16,00,03,5.90
2016,04,16,00,04,5.90
2016,04,16,00,05,5.90
2016,04,16,00,06,5.90
2016,04,16,00,07,5.90
2016,04,16,00,08,5.90
2016,04,16,00,09,5.90
2016,04,16,00,10,5.90
2016,04,16,00,11,5.90
2016,04,16,00,12,5.90
2016,04,16,00,13,5.90
2016,04,16,00,14,5.90
2016,04,16,00,15,5.90
2016,04,16,00,16,5.90
2016,04,16,00,17,5.90
2016,04,16,00,18,5.90
2016,04,16,00,19,5.90
2016,04,16,00,20,5.90
2016,04,16,00,21,5.90
2016,04,16,00,22,5.90
2016,04,16,00,23,5.90
2016,04,16,00,24,5.90
2016,04,16,00,25,5.90
2016,04,16,00,26,5.90
2016,04,16,00,27,5.90
2016,04,16,00,28,5.90
2016,04,16,00,29,5.80
2016,04,16,00,30,5.80
2016,04,16,00,31,5.80
2016,04,16,00,32,5.80
2016,04,16,00,33,5.80
2016,04,16,00,34,5.80
2016,04,16,00,35,5.80
2016,04,16,00,36,5.80
2016,04,16,00,37,5.90
2016,04,16,00,38,5.90
2016,04,16,00,39,5.90
2016,04,16,00,40,5.90
2016,04,16,00,41,5.90
2016,04,16,00,42,5.90
2016,04,16,00,43,5.90
2016,04,16,00,44,5.90
2016,04,16,00,45,5.90
2016,04,16,00,46,5.90
2016,04,16,00,47,5.90
2016,04,16,00,48,5.90
2016,04,16,00,49,5.90
2016,04,16,00,50,5.90
2016,04,16,00,51,5.90
2016,04,16,00,52,5.90
2016,04,16,00,53,5.90
2016,04,16,00,54,5.90
2016,04,16,00,55,6.00
2016,04,16,00,56,6.00
2016,04,16,00,57,6.00
2016,04,16,00,58,6.00
2016,04,16,00,59,6.00
2016,04,16,01,00,6.10
2016,04,16,01,01,6.10
2016,04,16,01,02,6.10
2016,04,16,01,03,6.10
2016,04,16,01,04,6.10
2016,04,16,01,05,6.10
2016,04,16,01,06,6.10
2016,04,16,01,07,6.20
2016,04,16,01,08,6.20
2016,04,16,01,09,6.20
2016,04,16,01,10,6.20
2016,04,16,01,11,6.20
2016,04,16,01,12,6.20
2016,04,16,01,13,6.20
2016,04,16,01,14,6.30
2016,04,16,01,15,6.30
2016,04,16,01,16,6.30
2016,04,16,01,17,6.30
2016,04,16,01,18,6.30
2016,04,16,01,19,6.30
2016,04,16,01,20,6.30
2016,04,16,01,21,6.30
2016,04,16,01,22,6.30
2016,04,16,01,23,6.30
2016,04,16,01,24,6.30
2016,04,16,01,25,6.30
2016,04,16,01,26,6.30
2016,04,16,01,27,6.30
2016,04,16,01,28,6.40
2016,04,16,01,29,6.40
2016,04,16,01,30,6.40
2016,04,16,01,31,6.40
2016,04,16,01,32,6.40
2016,04,16,01,33,6.40
2016,04,16,01,34,6.40
2016,04,16,01,35,6.50
2016,04,16,01,36,6.50
2016,04,16,01,37,6.50
2016,04,16,01,38,6.50
2016,04,16,01,39,6.50
2016,04,16,01,40,6.50
2016,04,16,01,41,6.50
2016,04,16,01,42,6.50
2016,04,16,01,43,6.50
2016,04,16,01,44,6.60
2016,04,16,01,45,6.60
2016,04,16,01,49,6.60
2016,04,16,01,50,6.60
2016,04,16,01,51,6.60
2016,04,16,01,52,6.60
2016,04,16,01,53,6.60
2016,04,16,01,54,6.70
2016,04,16,01,55,6.70
2016,04,16,01,56,6.70
2016,04,16,01,57,6.70
2016,04,16,01,58,6.70
2016,04,16,01,59,6.70
2016,04,16,02,00,6.70
2016,04,16,02,01,6.70
2016,04,16,02,02,6.70
2016,04,16,02,03,6.70
2016,04,16,02,04,6.80
2016,04,16,02,05,6.80
2016,04,16,02,06,6.80
2016,04,16,02,07,6.80
2016,04,16,02,08,6.80
2016,04,16,02,09,6.80
2016,04,16,02,10,6.90
2016,04,16,02,11,6.90
2016,04,16,02,12,6.90
2016,04,16,02,13,6.90
2016,04,16,02,14,6.90
2016,04,16,02,15,6.90
2016,04,16,02,16,7.00
2016,04,16,02,17,7.00
2016,04,16,02,18,7.00
2016,04,16,02,19,7.10
2016,04,16,02,20,7.10
2016,04,16,02,21,7.10
2016,04,16,02,22,7.20
2016,04,16,02,23,7.20
2016,04,16,02,24,7.20
2016,04,16,02,25,7.20
2016,04,16,02,26,7.30
2016,04,16,02,27,7.30
2016,04,16,02,28,7.40
2016,04,16,02,29,7.40
2016,04,16,02,30,7.40
2016,04,16,02,31,7.50
2016,04,16,02,32,7.50
2016,04,16,02,33,7.60
2016,04,16,02,34,7.60
2016,04,16,02,35,7.70
2016,04,16,02,36,7.70
2016,04,16,02,37,7.70
2016,04,16,02,38,7.80
2016,04,16,02,39,7.80
2016,04,16,02,40,7.80
2016,04,16,02,41,7.90
2016,04,16,02,42,7.90
2016,04,16,02,43,8.00
2016,04,16,02,44,8.10
2016,04,16,02,45,8.20
2016,04,16,02,46,8.20
2016,04,16,02,47,8.30
2016,04,16,02,48,8.30
2016,04,16,02,49,8.40
2016,04,16,02,50,8.40
2016,04,16,02,51,8.50
2016,04,16,02,52,8.50
2016,04,16,02,53,8.60
2016,04,16,02,54,8.60
2016,04,16,02,55,8.60
2016,04,16,02,56,8.60
2016,04,16,02,57,8.70
2016,04,16,02,58,8.70
2016,04,16,02,59,8.70
2016,04,16,03,00,8.70
2016,04,16,03,01,8.80
2016,04,16,03,02,8.80
2016,04,16,03,03,8.80
2016,04,16,03,04,8.80
2016,04,16,03,05,8.90
2016,04,16,03,06,8.90
2016,04,16,03,07,9.00
2016,04,16,03,08,9.00
2016,04,16,03,09,9.00
2016,04,16,03,10,9.10
2016,04,16,03,11,9.10
2016,04,16,03,12,9.20
2016,04,16,03,13,9.20
2016,04,16,03,14,9.20
2016,04,16,03,15,9.30
2016,04,16,03,16,9.30
2016,04,16,03,17,9.30
2016,04,16,03,18,9.30
2016,04,16,03,19,9.40
2016,04,16,03,20,9.40
2016,04,16,03,21,9.40
2016,04,16,03,22,9.40
2016,04,16,03,23,9.50
2016,04,16,03,24,9.50
2016,04,16,03,25,9.60
2016,04,16,03,26,9.60
2016,04,16,03,27,9.60
2016,04,16,03,28,9.60
2016,04,16,03,29,9.60
2016,04,16,03,30,9.60
2016,04,16,03,31,9.60
2016,04,16,03,32,9.60
2016,04,16,03,33,9.60
2016,04,16,03,34,9.60
2016,04,16,03,35,9.70
2016,04,16,03,36,9.70
2016,04,16,03,37,9.70
2016,04,16,03,38,9.70
2016,04,16,03,39,9.70
2016,04,16,03,40,9.70
2016,04,16,03,41,9.80
2016,04,16,03,42,9.80
2016,04,16,03,43,9.80
2016,04,16,03,44,9.80
2016,04,16,03,45,9.80
2016,04,16,03,46,9.80
2016,04,16,03,47,9.80
2016,04,16,03,48,9.90
2016,04,16,03,49,9.90
2016,04,16,03,50,9.90
2016,04,16,03,51,9.90
2016,04,16,03,52,9.90
2016,04,16,03,53,9.90
2016,04,16,03,54,9.90
2016,04,16,03,55,9.90
2016,04,16,03,56,9.90
2016,04,16,03,57,9.90
2016,04,16,03,58,9.90
2016,04,16,03,59,9.90
2016,04,16,04,00,9.90
2016,04,16,04,01,9.90
2016,04,16,04,02,9.90
2016,04,16,04,03,9.90
2016,04,16,04,04,9.90
2016,04,16,04,05,9.90
2016,04,16,04,06,9.90
2016,04,16,04,07,9.90
2016,04,16,04,08,9.90
2016,04,16,04,09,9.90
2016,04,16,04,10,9.90
2016,04,16,04,11,9.90
2016,04,16,04,12,9.90
2016,04,16,04,13,9.90
2016,04,16,04,14,9.90
2016,04,16,04,15,9.90
2016,04,16,04,16,9.90
2016,04,16,04,17,9.90
2016,04,16,04,18,9.90
2016,04,16,04,19,9.90
2016,04,16,04,20,9.90
2016,04,16,04,21,9.90
2016,04,16,04,22,9.90
2016,04,16,04,23,9.90
2016,04,16,04,24,9.90
2016,04,16,04,25,9.90
2016,04,16,04,26,9.90
2016,04,16,04,27,9.90
2016,04,16,04,28,9.90
2016,04,16,04,29,9.90
2016,04,16,04,30,9.90
2016,04,16,04,31,9.90
2016,04,16,04,32,9.90
2016,04,16,04,33,9.90
2016,04,16,04,34,9.90
2016,04,16,04,35,9.90
2016,04,16,04,36,9.90
2016,04,16,04,37,9.90
2016,04,16,04,38,9.90
2016,04,16,04,39,9.90
2016,04,16,04,40,9.90
2016,04,16,04,41,9.90
2016,04,16,04,42,9.90
2016,04,16,04,43,9.90
2016,04,16,04,44,9.90
2016,04,16,04,45,9.90
2016,04,16,04,46,9.90
2016,04,16,04,47,9.90
2016,04,16,04,48,9.90
2016,04,16,04,49,9.90
2016,04,16,04,50,9.90
2016,04,16,04,51,9.90
2016,04,16,04,52,9.90
2016,04,16,04,53,9.90
2016,04,16,04,54,9.90
2016,04,16,04,55,9.90
2016,04,16,04,56,9.90
2016,04,16,04,57,9.90
2016,04,16,04,58,9.90
2016,04,16,04,59,9.90
2016,04,16,05,00,9.90
2016,04,16,05,01,9.90
2016,04,16,05,02,9.90
2016,04,16,05,03,9.90
2016,04,16,05,04,9.90
2016,04,16,05,05,9.90
2016,04,16,05,06,9.90
2016,04,16,05,07,9.90
2016,04,16,05,08,9.90
2016,04,16,05,09,9.90
2016,04,16,05,10,9.90
2016,04,16,05,11,9.90
2016,04,16,05,12,9.90
2016,04,16,05,13,9.90
2016,04,16,05,14,9.90
2016,04,16,05,15,9.90
2016,04,16,05,16,9.90
2016,04,16,05,17,9.90
2016,04,16,05,18,9.90
2016,04,16,05,19,9.90
2016,04,16,05,20,9.90
2016,04,16,05,21,9.80
2016,04,16,05,22,9.90
2016,04,16,05,23,9.80
2016,04,16,05,24,9.80
2016,04,16,05,25,9.80
2016,04,16,05,26,9.80
2016,04,16,05,27,9.80
2016,04,16,05,28,9.80
2016,04,16,05,29,9.80
2016,04,16,05,30,9.80
2016,04,16,05,31,9.80
2016,04,16,05,32,9.80
2016,04,16,05,33,9.80
2016,04,16,05,34,9.80
2016,04,16,05,35,9.80
2016,04,16,05,36,9.80
2016,04,16,05,37,9.80
2016,04,16,05,38,9.80
2016,04,16,05,39,9.80
2016,04,16,05,40,9.80
2016,04,16,05,41,9.80
2016,04,16,05,42,9.80
2016,04,16,05,43,9.80
2016,04,16,05,44,9.80
2016,04,16,05,45,9.80
2016,04,16,05,46,9.80
2016,04,16,05,47,9.80
2016,04,16,05,48,9.80
2016,04,16,05,49,9.80
2016,04,16,05,50,9.80
2016,04,16,05,51,9.80
2016,04,16,05,52,9.80
2016,04,16,05,53,9.80
2016,04,16,05,54,9.80
2016,04,16,05,55,9.80
2016,04,16,05,56,9.80
2016,04,16,05,57,9.80
2016,04,16,05,58,9.80
2016,04,16,05,59,9.80
2016,04,16,06,00,9.80
2016,04,16,06,01,9.80
2016,04,16,06,02,9.80
2016,04,16,06,03,9.80
2016,04,16,06,04,9.80
2016,04,16,06,05,9.80
2016,04,16,06,06,9.80
2016,04,16,06,07,9.80
2016,04,16,06,08,9.80
2016,04,16,06,09,9.80
2016,04,16,06,10,9.80
2016,04,16,06,11,9.80
2016,04,16,06,12,9.80
2016,04,16,06,13,9.80
2016,04,16,06,14,9.80
2016,04,16,06,15,9.80
2016,04,16,06,16,9.80
2016,04,16,06,17,9.80
2016,04,16,06,18,9.80
2016,04,16,06,19,9.80
2016,04,16,06,20,9.80
2016,04,16,06,21,9.80
2016,04,16,06,22,9.80
2016,04,16,06,23,9.80
2016,04,16,06,24,9.80
2016,04,16,06,25,9.80
2016,04,16,06,26,9.80
2016,04,16,06,27,9.80
2016,04,16,06,28,9.80
2016,04,16,06,29,9.80
2016,04,16,06,30,9.80
2016,04,16,06,31,9.80
2016,04,16,06,32,9.80
2016,04,16,06,33,9.80
2016,04,16,06,34,9.80
2016,04,16,06,35,9.80
2016,04,16,06,36,9.80
2016,04,16,06,37,9.80
2016,04,16,06,38,9.80
2016,04,16,06,39,9.80
2016,04,16,06,40,9.90
2016,04,16,06,41,9.90
2016,04,16,06,42,9.90
2016,04,16,06,43,9.90
2016,04,16,06,44,9.90
2016,04,16,06,45,9.90
2016,04,16,06,46,9.90
2016,04,16,06,47,9.90
2016,04,16,06,48,9.90
2016,04,16,06,49,9.90
2016,04,16,06,50,9.90
2016,04,16,06,51,9.90
2016,04,16,06,52,9.90
2016,04,16,06,53,10.00
2016,04,16,06,54,10.00
2016,04,16,06,55,10.00
2016,04,16,06,56,10.00
2016,04,16,06,57,10.00
2016,04,16,06,58,10.00
2016,04,16,06,59,10.10
2016,04,16,07,00,10.10
2016,04,16,07,01,10.10
2016,04,16,07,02,10.10
2016,04,16,07,03,10.10
2016,04,16,07,04,10.10
2016,04,16,07,05,10.10
2016,04,16,07,06,10.10
2016,04,16,07,07,10.10
2016,04,16,07,08,10.20
2016,04,16,07,09,10.20
2016,04,16,07,10,10.20
2016,04,16,07,11,10.20
2016,04,16,07,12,10.20
2016,04,16,07,13,10.20
2016,04,16,07,14,10.20
2016,04,16,07,15,10.20
2016,04,16,07,16,10.20
2016,04,16,07,17,10.20
2016,04,16,07,18,10.20
2016,04,16,07,19,10.20
2016,04,16,07,20,10.20
2016,04,16,07,21,10.20
2016,04,16,07,22,10.20
2016,04,16,07,23,10.30
2016,04,16,07,24,10.30
2016,04,16,07,25,10.30
2016,04,16,07,26,10.30
2016,04,16,07,27,10.30
2016,04,16,07,28,10.30
2016,04,16,07,29,10.30
2016,04,16,07,30,10.30
2016,04,16,07,31,10.30
2016,04,16,07,32,10.40
2016,04,16,07,33,10.40
2016,04,16,07,34,10.40
2016,04,16,07,35,10.40
2016,04,16,07,36,10.40
2016,04,16,07,37,10.40
2016,04,16,07,38,10.40
2016,04,16,07,39,10.40
2016,04,16,07,40,10.40
2016,04,16,07,41,10.40
2016,04,16,07,42,10.40
2016,04,16,07,43,10.40
2016,04,16,07,44,10.50
2016,04,16,07,45,10.50
2016,04,16,07,46,10.50
2016,04,16,07,47,10.50
2016,04,16,07,48,10.50
2016,04,16,07,49,10.50
2016,04,16,07,50,10.50
2016,04,16,07,51,10.60
2016,04,16,07,52,10.60
2016,04,16,07,53,10.60
2016,04,16,07,54,10.60
2016,04,16,07,55,10.60
2016,04,16,07,56,10.60
2016,04,16,07,57,10.60
2016,04,16,07,58,10.60
2016,04,16,07,59,10.60
2016,04,16,08,00,10.60
2016,04,16,08,01,10.60
2016,04,16,08,02,10.60
2016,04,16,08,03,10.60
2016,04,16,08,04,10.70
2016,04,16,08,05,10.70
2016,04,16,08,06,10.70
2016,04,16,08,07,10.70
2016,04,16,08,08,10.70
2016,04,16,08,09,10.70
2016,04,16,08,10,10.70
2016,04,16,08,11,10.70
2016,04,16,08,12,10.70
2016,04,16,08,13,10.70
2016,04,16,08,14,10.80
2016,04,16,08,15,10.80
2016,04,16,08,16,10.80
2016,04,16,08,17,10.80
2016,04,16,08,18,10.80
2016,04,16,08,19,10.80
2016,04,16,08,20,10.80
2016,04,16,08,21,10.80
2016,04,16,08,22,10.80
2016,04,16,08,23,10.80
2016,04,16,08,24,10.80
2016,04,16,08,25,10.80
2016,04,16,08,26,10.80
2016,04,16,08,27,10.80
2016,04,16,08,28,10.80
2016,04,16,08,29,10.80
2016,04,16,08,30,10.80
2016,04,16,08,31,10.80
2016,04,16,08,32,10.80
2016,04,16,08,33,10.80
2016,04,16,08,34,10.90
2016,04,16,08,35,10.90
2016,04,16,08,36,10.90
2016,04,16,08,37,10.90
2016,04,16,08,38,10.90
2016,04,16,08,39,10.90
2016,04,16,08,40,10.90
2016,04,16,08,41,10.90
2016,04,16,08,42,10.90
2016,04,16,08,43,10.90
2016,04,16,08,44,10.90
2016,04,16,08,45,10.90
2016,04,16,08,46,10.90
2016,04,16,08,47,10.90
2016,04,16,08,48,10.90
2016,04,16,08,49,10.90
2016,04,16,08,50,10.90
2016,04,16,08,51,10.90
2016,04,16,08,52,10.90
2016,04,16,08,53,10.90
2016,04,16,08,54,10.90
2016,04,16,08,55,10.90
2016,04,16,08,56,10.90
2016,04,16,08,57,10.90
2016,04,16,08,58,10.90
2016,04,16,08,59,10.80
2016,04,16,09,00,10.80
2016,04,16,09,01,10.80
2016,04,16,09,02,10.80
2016,04,16,09,03,10.80
2016,04,16,09,04,10.90
2016,04,16,09,05,10.90
2016,04,16,09,06,10.90
2016,04,16,09,07,10.90
2016,04,16,09,08,10.90
2016,04,16,09,09,10.90
2016,04,16,09,10,10.90
2016,04,16,09,11,10.90
2016,04,16,09,12,10.90
2016,04,16,09,13,10.90
2016,04,16,09,14,10.90
2016,04,16,09,15,10.90
2016,04,16,09,16,10.90
2016,04,16,09,17,10.90
2016,04,16,09,18,10.90
2016,04,16,09,19,10.90
2016,04,16,09,20,10.90
2016,04,16,09,21,11.00
2016,04,16,09,22,11.00
2016,04,16,09,23,11.00
2016,04,16,09,24,11.00
2016,04,16,09,25,11.00
2016,04,16,09,26,11.00
2016,04,16,09,27,11.10
2016,04,16,09,28,11.10
2016,04,16,09,29,11.10
2016,04,16,09,30,11.10
2016,04,16,09,31,11.10
2016,04,16,09,32,11.10
2016,04,16,09,33,11.10
2016,04,16,09,34,11.10
2016,04,16,09,35,11.10
2016,04,16,09,36,11.10
2016,04,16,09,37,11.10
2016,04,16,09,38,11.10
2016,04,16,09,39,11.10
2016,04,16,09,40,11.10
2016,04,16,09,41,11.10
2016,04,16,09,42,11.10
2016,04,16,09,43,11.10
2016,04,16,09,44,11.10
2016,04,16,09,45,11.10
2016,04,16,09,46,11.10
2016,04,16,09,47,11.10
2016,04,16,09,48,11.10
2016,04,16,09,49,11.10
2016,04,16,09,50,11.10
2016,04,16,09,51,11.10
2016,04,16,09,52,11.00
2016,04,16,09,53,11.00
2016,04,16,09,54,11.00
2016,04,16,09,55,11.00
2016,04,16,09,56,11.00
2016,04,16,09,57,11.00
2016,04,16,09,58,11.00
2016,04,16,09,59,11.10
2016,04,16,10,00,11.00
2016,04,16,10,01,11.00
2016,04,16,10,02,11.00
2016,04,16,10,03,11.00
2016,04,16,10,04,11.00
2016,04,16,10,05,11.00
2016,04,16,10,06,11.00
2016,04,16,10,07,11.00
2016,04,16,10,08,11.00
2016,04,16,10,09,11.00
2016,04,16,10,10,11.10
2016,04,16,10,11,11.10
2016,04,16,10,12,11.10
2016,04,16,10,13,11.10
2016,04,16,10,14,11.10
2016,04,16,10,15,11.10
2016,04,16,10,16,11.10
2016,04,16,10,17,11.10
2016,04,16,10,18,11.10
2016,04,16,10,19,11.10
2016,04,16,10,20,11.10
2016,04,16,10,21,11.10
2016,04,16,10,22,11.10
2016,04,16,10,23,11.10
2016,04,16,10,24,11.10
2016,04,16,10,25,11.10
2016,04,16,10,26,11.10
2016,04,16,10,27,11.10
2016,04,16,10,28,11.10
2016,04,16,10,29,11.20
2016,04,16,10,30,11.20
2016,04,16,10,31,11.20
2016,04,16,10,32,11.10
2016,04,16,10,33,11.10
2016,04,16,10,34,11.10
2016,04,16,10,35,11.10
2016,04,16,10,36,11.10
2016,04,16,10,37,11.10
2016,04,16,10,38,11.10
2016,04,16,10,39,11.10
2016,04,16,10,40,11.00
2016,04,16,10,41,11.00
2016,04,16,10,42,11.00
2016,04,16,10,43,10.90
2016,04,16,10,44,10.90
2016,04,16,10,45,10.90
2016,04,16,10,46,10.90
2016,04,16,10,47,10.90
2016,04,16,10,48,10.90
2016,04,16,10,49,10.90
2016,04,16,10,50,10.90
2016,04,16,10,51,10.90
2016,04,16,10,52,10.80
2016,04,16,10,53,10.80
2016,04,16,10,54,10.80
2016,04,16,10,55,10.80
2016,04,16,10,56,10.80
2016,04,16,10,57,10.80
2016,04,16,10,58,10.70
2016,04,16,10,59,10.70
2016,04,16,11,00,10.70
2016,04,16,11,01,10.70
2016,04,16,11,02,10.70
2016,04,16,11,03,10.70
2016,04,16,11,04,10.70
2016,04,16,11,05,10.70
2016,04,16,11,06,10.70
2016,04,16,11,07,10.60
2016,04,16,11,08,10.60
2016,04,16,11,09,10.60
2016,04,16,11,10,10.60
2016,04,16,11,11,10.60
2016,04,16,11,12,10.60
2016,04,16,11,13,10.60
2016,04,16,11,14,10.50
2016,04,16,11,15,10.50
2016,04,16,11,16,10.50
2016,04,16,11,17,10.50
2016,04,16,11,18,10.50
2016,04,16,11,19,10.50
2016,04,16,11,20,10.50
2016,04,16,11,21,10.50
2016,04,16,11,22,10.50
2016,04,16,11,23,10.50
2016,04,16,11,24,10.40
2016,04,16,11,25,10.40
2016,04,16,11,26,10.40
2016,04,16,11,27,10.40
2016,04,16,11,28,10.40
2016,04,16,11,29,10.40
2016,04,16,11,30,10.30
2016,04,16,11,31,10.30
2016,04,16,11,32,10.30
2016,04,16,11,33,10.30
2016,04,16,11,34,10.30
2016,04,16,11,35,10.30
2016,04,16,11,36,10.30
2016,04,16,11,37,10.30
2016,04,16,11,38,10.30
2016,04,16,11,39,10.30
2016,04,16,11,40,10.30
2016,04,16,11,41,10.30
2016,04,16,11,42,10.30
2016,04,16,11,43,10.30
2016,04,16,11,44,10.30
2016,04,16,11,45,10.30
2016,04,16,11,46,10.30
2016,04,16,11,47,10.30
2016,04,16,11,48,10.30
2016,04,16,11,49,10.30
2016,04,16,11,50,10.30
2016,04,16,11,51,10.30
2016,04,16,11,52,10.30
2016,04,16,11,53,10.30
2016,04,16,11,54,10.30
2016,04,16,11,55,10.30
2016,04,16,11,56,10.30
2016,04,16,11,57,10.20
2016,04,16,11,58,10.20
2016,04,16,11,59,10.20
2016,04,16,12,00,10.20
2016,04,16,12,01,10.20
2016,04,16,12,02,10.10
2016,04,16,12,03,10.10
2016,04,16,12,04,10.10
2016,04,16,12,05,10.10
2016,04,16,12,06,10.10
2016,04,16,12,07,10.00
2016,04,16,12,08,10.00
2016,04,16,12,09,10.10
2016,04,16,12,10,10.10
2016,04,16,12,11,10.10
2016,04,16,12,12,10.10
2016,04,16,12,13,10.10
2016,04,16,12,14,10.00
2016,04,16,12,15,10.00
2016,04,16,12,16,10.00
2016,04,16,12,17,10.00
2016,04,16,12,18,10.00
2016,04,16,12,19,10.00
2016,04,16,12,20,10.00
2016,04,16,12,21,10.00
2016,04,16,12,22,10.00
2016,04,16,12,23,9.90
2016,04,16,12,24,9.90
2016,04,16,12,25,9.90
2016,04,16,12,26,10.00
2016,04,16,12,27,10.00
2016,04,16,12,28,10.00
2016,04,16,12,29,10.00
2016,04,16,12,30,10.00
2016,04,16,12,31,10.00
2016,04,16,12,32,9.90
2016,04,16,12,33,9.90
2016,04,16,12,34,9.90
2016,04,16,12,35,9.90
2016,04,16,12,36,9.90
2016,04,16,12,37,9.90
2016,04,16,12,38,9.90
2016,04,16,12,39,9.90
2016,04,16,12,40,9.90
2016,04,16,12,41,9.90
2016,04,16,12,42,9.90
2016,04,16,12,43,9.90
2016,04,16,12,44,9.90
2016,04,16,12,45,9.90
2016,04,16,12,46,9.90
2016,04,16,12,47,9.90
2016,04,16,12,48,9.90
2016,04,16,12,49,9.90
2016,04,16,12,50,9.90
2016,04,16,12,51,9.90
2016,04,16,12,52,9.90
2016,04,16,12,53,9.90
2016,04,16,12,54,9.90
2016,04,16,12,55,9.90
2016,04,16,12,56,9.90
2016,04,16,12,57,9.90
2016,04,16,12,58,9.90
2016,04,16,12,59,9.90
2016,04,16,13,00,9.90
2016,04,16,13,01,9.80
2016,04,16,13,02,9.80
2016,04,16,13,03,9.80
2016,04,16,13,04,9.80
2016,04,16,13,05,9.80
2016,04,16,13,06,9.80
2016,04,16,13,07,9.80
2016,04,16,13,08,9.80
2016,04,16,13,09,9.80
2016,04,16,13,10,9.70
2016,04,16,13,11,9.70
2016,04,16,13,12,9.70
2016,04,16,13,13,9.70
2016,04,16,13,14,9.70
2016,04,16,13,15,9.70
2016,04,16,13,16,9.70
2016,04,16,13,17,9.70
2016,04,16,13,18,9.70
2016,04,16,13,19,9.70
2016,04,16,13,20,9.60
2016,04,16,13,21,9.60
2016,04,16,13,22,9.60
2016,04,16,13,23,9.60
2016,04,16,13,24,9.60
2016,04,16,13,25,9.60
2016,04,16,13,26,9.60
2016,04,16,13,27,9.60
2016,04,16,13,28,9.60
2016,04,16,13,29,9.60
2016,04,16,13,30,9.50
2016,04,16,13,31,9.50
2016,04,16,13,32,9.50
2016,04,16,13,33,9.40
2016,04,16,13,34,9.40
2016,04,16,13,35,9.40
2016,04,16,13,36,9.40
2016,04,16,13,37,9.30
2016,04,16,13,38,9.30
2016,04,16,13,39,9.30
2016,04,16,13,40,9.30
2016,04,16,13,41,9.30
2016,04,16,13,42,9.30
2016,04,16,13,43,9.30
2016,04,16,13,44,9.30
2016,04,16,13,45,9.30
2016,04,16,13,46,9.30
2016,04,16,13,47,9.30
2016,04,16,13,48,9.30
2016,04,16,13,49,9.30
2016,04,16,13,50,9.30
2016,04,16,13,51,9.30
2016,04,16,13,52,9.30
2016,04,16,13,53,9.30
2016,04,16,13,54,9.30
2016,04,16,13,55,9.30
2016,04,16,13,56,9.20
2016,04,16,13,57,9.20
2016,04,16,13,58,9.20
2016,04,16,13,59,9.20
2016,04,16,14,00,9.20
2016,04,16,14,01,9.20
2016,04,16,14,02,9.20
2016,04,16,14,03,9.20
2016,04,16,14,04,9.20
2016,04,16,14,05,9.20
2016,04,16,14,06,9.20
2016,04,16,14,07,9.30
2016,04,16,14,08,9.30
2016,04,16,14,09,9.30
2016,04,16,14,10,9.30
2016,04,16,14,11,9.30
2016,04,16,14,12,9.30
2016,04,16,14,13,9.30
2016,04,16,14,14,9.30
2016,04,16,14,15,9.30
2016,04,16,14,16,9.30
2016,04,16,14,17,9.30
2016,04,16,14,18,9.30
2016,04,16,14,19,9.30
2016,04,16,14,20,9.30
2016,04,16,14,21,9.30
2016,04,16,14,22,9.30
2016,04,16,14,23,9.30
2016,04,16,14,24,9.30
2016,04,16,14,25,9.30
2016,04,16,14,26,9.30
2016,04,16,14,27,9.30
2016,04,16,14,28,9.20
2016,04,16,14,29,9.20
2016,04,16,14,30,9.20
2016,04,16,14,31,9.20
2016,04,16,14,32,9.20
2016,04,16,14,33,9.20
2016,04,16,14,34,9.20
2016,04,16,14,35,9.20
2016,04,16,14,36,9.20
2016,04,16,14,37,9.20
2016,04,16,14,38,9.20
2016,04,16,14,39,9.20
2016,04,16,14,40,9.20
2016,04,16,14,41,9.20
2016,04,16,14,42,9.20
2016,04,16,14,43,9.20
2016,04,16,14,44,9.20
2016,04,16,14,45,9.20
2016,04,16,14,46,9.20
2016,04,16,14,47,9.20
2016,04,16,14,48,9.20
2016,04,16,14,49,9.20
2016,04,16,14,50,9.20
2016,04,16,14,51,9.20
2016,04,16,14,52,9.20
2016,04,16,14,53,9.20
2016,04,16,14,54,9.20
2016,04,16,14,55,9.20
2016,04,16,14,56,9.20
2016,04,16,14,57,9.20
2016,04,16,14,58,9.20
2016,04,16,14,59,9.20
2016,04,16,15,00,9.20
2016,04,16,15,01,9.20
2016,04,16,15,02,9.10
2016,04,16,15,03,9.10
2016,04,16,15,04,9.10
2016,04,16,15,05,9.10
2016,04,16,15,06,9.10
2016,04,16,15,07,9.10
2016,04,16,15,08,9.10
2016,04,16,15,09,9.10
2016,04,16,15,10,9.10
2016,04,16,15,11,9.10
2016,04,16,15,12,9.10
2016,04,16,15,13,9.10
2016,04,16,15,14,9.10
2016,04,16,15,15,9.10
2016,04,16,15,16,9.10
2016,04,16,15,17,9.10
2016,04,16,15,18,9.10
2016,04,16,15,19,9.10
2016,04,16,15,20,9.10
2016,04,16,15,21,9.10
2016,04,16,15,22,9.10
2016,04,16,15,23,9.10
2016,04,16,15,24,9.10
2016,04,16,15,25,9.10
2016,04,16,15,26,9.10
2016,04,16,15,27,9.10
2016,04,16,15,28,9.10
2016,04,16,15,29,9.10
2016,04,16,15,30,9.10
2016,04,16,15,31,9.10
2016,04,16,15,32,9.10
2016,04,16,15,33,9.10
2016,04,16,15,34,9.10
2016,04,16,15,35,9.20
2016,04,16,15,36,9.20
2016,04,16,15,37,9.20
2016,04,16,15,38,9.20
2016,04,16,15,39,9.20
2016,04,16,15,40,9.20
2016,04,16,15,41,9.20
2016,04,16,15,42,9.20
2016,04,16,15,43,9.20
2016,04,16,15,44,9.20
2016,04,16,15,45,9.20
2016,04,16,15,46,9.20
2016,04,16,15,47,9.20
2016,04,16,15,48,9.20
2016,04,16,15,49,9.20
2016,04,16,15,50,9.10
2016,04,16,15,51,9.10
2016,04,16,15,52,9.10
2016,04,16,15,53,9.10
2016,04,16,15,54,9.10
2016,04,16,15,55,9.10
2016,04,16,15,56,9.10
2016,04,16,15,57,9.00
2016,04,16,15,58,9.10
2016,04,16,15,59,9.10
2016,04,16,16,00,9.10
2016,04,16,16,01,9.10
2016,04,16,16,02,9.10
2016,04,16,16,03,9.10
2016,04,16,16,04,9.10
2016,04,16,16,05,9.10
2016,04,16,16,06,9.10
2016,04,16,16,07,9.10
2016,04,16,16,08,9.10
2016,04,16,16,09,9.10
2016,04,16,16,10,9.10
2016,04,16,16,11,9.10
2016,04,16,16,12,9.10
2016,04,16,16,13,9.10
2016,04,16,16,14,9.10
2016,04,16,16,15,9.20
2016,04,16,16,16,9.20
2016,04,16,16,17,9.20
2016,04,16,16,18,9.20
2016,04,16,16,19,9.20
2016,04,16,16,20,9.20
2016,04,16,16,21,9.20
2016,04,16,16,22,9.20
2016,04,16,16,23,9.20
2016,04,16,16,24,9.20
2016,04,16,16,25,9.20
2016,04,16,16,26,9.20
2016,04,16,16,27,9.20
2016,04,16,16,28,9.20
2016,04,16,16,29,9.20
2016,04,16,16,30,9.20
2016,04,16,16,31,9.20
2016,04,16,16,32,9.20
2016,04,16,16,33,9.10
2016,04,16,16,34,9.10
2016,04,16,16,35,9.10
2016,04,16,16,36,9.10
2016,04,16,16,37,9.10
2016,04,16,16,38,9.20
2016,04,16,16,39,9.20
2016,04,16,16,40,9.20
2016,04,16,16,41,9.20
2016,04,16,16,42,9.20
2016,04,16,16,43,9.20
2016,04,16,16,44,9.20
2016,04,16,16,45,9.20
2016,04,16,16,46,9.20
2016,04,16,16,47,9.20
2016,04,16,16,48,9.20
2016,04,16,16,49,9.20
2016,04,16,16,50,9.20
2016,04,16,16,51,9.20
2016,04,16,16,52,9.20
2016,04,16,16,53,9.20
2016,04,16,16,54,9.20
2016,04,16,16,55,9.20
2016,04,16,16,56,9.20
2016,04,16,16,57,9.20
2016,04,16,16,58,9.20
2016,04,16,16,59,9.20
2016,04,16,17,00,9.30
2016,04,16,17,01,9.30
2016,04,16,17,02,9.30
2016,04,16,17,03,9.30
2016,04,16,17,04,9.30
2016,04,16,17,05,9.30
2016,04,16,17,06,9.30
2016,04,16,17,07,9.40
2016,04,16,17,08,9.40
2016,04,16,17,09,9.40
2016,04,16,17,10,9.40
2016,04,16,17,11,9.40
2016,04,16,17,12,9.50
2016,04,16,17,13,9.50
2016,04,16,17,14,9.50
2016,04,16,17,15,9.50
2016,04,16,17,16,9.50
2016,04,16,17,17,9.50
2016,04,16,17,18,9.60
2016,04,16,17,19,9.60
2016,04,16,17,20,9.60
2016,04,16,17,21,9.60
2016,04,16,17,22,9.60
2016,04,16,17,23,9.60
2016,04,16,17,24,9.60
2016,04,16,17,25,9.60
2016,04,16,17,26,9.60
2016,04,16,17,27,9.60
2016,04,16,17,28,9.70
2016,04,16,17,29,9.70
2016,04,16,17,30,9.70
2016,04,16,17,31,9.80
2016,04,16,17,32,9.80
2016,04,16,17,33,9.80
2016,04,16,17,34,9.90
2016,04,16,17,35,9.90
2016,04,16,17,36,9.90
2016,04,16,17,37,9.90
2016,04,16,17,38,9.90
2016,04,16,17,39,10.00
2016,04,16,17,40,10.00
2016,04,16,17,41,10.00
2016,04,16,17,42,10.00
2016,04,16,17,43,10.00
2016,04,16,17,44,10.10
2016,04,16,17,45,10.10
2016,04,16,17,46,10.10
2016,04,16,17,47,10.10
2016,04,16,17,48,10.20
2016,04,16,17,49,10.20
2016,04,16,17,50,10.20
2016,04,16,17,51,10.30
2016,04,16,17,52,10.30
2016,04,16,17,53,10.30